Granite Falls, MN

3:45 AM CDT on July 28, 2017 (GMT -0500)
Granite Falls

Weather History for KGDB - October, 2012

Change the Weather History Date:

Thursday, October 18, 2012

  Actual Average (KMVE) Record (KMVE)
Temperature  
Mean Temperature 44 °F -  
Max Temperature 47 °F 56 °F 84 °F (2005)
Min Temperature 40 °F 34 °F 18 °F (1972)
Degree Days  
Heating Degree Days 22    
Moisture  
Dew Point 41 °F    
Average Humidity 92    
Maximum Humidity 95    
Minimum Humidity 84    
Precipitation  
Precipitation 0.30 in - - ()
Sea Level Pressure  
Sea Level Pressure 29.31 in    
Wind  
Wind Speed 19 mph (WNW)    
Max Wind Speed 32 mph    
Max Gust Speed 43 mph    
Visibility 5 miles    
Events Rain    
Averages and records for this station are not official NWS values.
T = Trace of Precipitation, MM = Missing Value Source: NWS Daily Summary

Daily Weather History Graph

Daily Weather History Graph

Search for Another Location

Airport or City:

Trip Planner

Search our weather history database for the weather conditions in past years. The results will help you decide how hot, cold, wet, or windy it might be!

Date:

Astronomy

Oct. 18, 2012 Rise Set
Actual Time 7:42 AM CDT 6:31 PM CDT
Civil Twilight 7:12 AM CDT 7:01 PM CDT
Nautical Twilight 6:38 AM CDT 7:35 PM CDT
Astronomical Twilight 6:04 AM CDT 8:08 PM CDT
Moon 11:34 AM CDT (10/18) 8:57 PM CDT (10/18)
Length of Visible Light 11h 48m
Length of Day
10h 49m
Waxing Crescent, 14% of the Moon is Illuminated
Oct 18
Waxing Crescent
Oct 21
First Quarter
Oct 29
Full
Nov 6
Last Quarter
Nov 13
New

Hourly Weather History & Observations

Time (CDT) Temp. Windchill Dew Point Humidity Pressure Visibility Wind Dir Wind Speed Gust Speed Precip Events Conditions
12:12 AM 43.0 °F 34.2 °F 38.5 °F 84% 29.32 in 10.0 mi West 20.7 mph 26.5 mph N/A   Overcast
12:32 AM 42.8 °F 34.5 °F 38.7 °F 85% 29.32 in 10.0 mi West 18.4 mph 26.5 mph N/A   Overcast
12:52 AM 42.8 °F 34.8 °F 38.5 °F 85% 29.32 in 10.0 mi West 17.3 mph - N/A   Overcast
1:12 AM 42.4 °F 34.4 °F 38.5 °F 86% 29.32 in 10.0 mi West 17.3 mph - N/A   Overcast
1:32 AM 42.3 °F 32.8 °F 38.3 °F 86% 29.31 in 10.0 mi West 23.0 mph 28.8 mph N/A   Overcast
1:52 AM 41.9 °F 33.7 °F 38.7 °F 88% 29.30 in 7.0 mi West 17.3 mph 24.2 mph N/A   Overcast
2:12 AM 41.9 °F 33.7 °F 38.7 °F 88% 29.29 in 10.0 mi West 17.3 mph - N/A   Overcast
2:32 AM 41.9 °F 33.1 °F 38.7 °F 88% 29.29 in 10.0 mi West 19.6 mph - N/A   Overcast
2:52 AM 41.2 °F 32.1 °F 39.0 °F 92% 29.29 in 5.0 mi West 19.6 mph - N/A   Overcast
3:12 AM 41.0 °F 31.9 °F 38.8 °F 92% 29.28 in 4.0 mi West 19.6 mph - N/A   Overcast
3:32 AM 40.6 °F 31.7 °F 38.5 °F 92% 29.28 in 4.0 mi West 18.4 mph 26.5 mph N/A   Drizzle
3:52 AM 40.5 °F 31.5 °F 38.5 °F 93% 29.27 in 4.0 mi West 18.4 mph - N/A   Light Drizzle
4:12 AM 40.3 °F 31.3 °F 38.3 °F 93% 29.27 in 4.0 mi West 18.4 mph - N/A   Overcast
4:32 AM 40.3 °F 31.0 °F 38.3 °F 93% 29.26 in 4.0 mi West 19.6 mph 24.2 mph N/A   Overcast
4:52 AM 40.3 °F 31.3 °F 38.1 °F 92% 29.25 in 7.0 mi West 18.4 mph - N/A   Overcast
5:12 AM 40.1 °F 30.2 °F 37.8 °F 91% 29.24 in 7.0 mi WSW 21.9 mph 26.5 mph N/A   Overcast
5:32 AM 40.1 °F 30.2 °F 37.9 °F 92% 29.23 in 7.0 mi West 21.9 mph 27.6 mph N/A   Overcast
5:52 AM 40.1 °F 30.2 °F 37.9 °F 92% 29.22 in 10.0 mi West 21.9 mph 27.6 mph N/A   Overcast
6:12 AM 40.5 °F 31.5 °F 38.3 °F 92% 29.22 in 10.0 mi West 18.4 mph 24.2 mph N/A   Overcast
6:32 AM 41.0 °F 31.6 °F 38.7 °F 91% 29.22 in 7.0 mi West 20.7 mph - N/A   Overcast
6:52 AM 41.5 °F 32.9 °F 39.6 °F 93% 29.21 in 5.0 mi West 18.4 mph - N/A   Overcast
7:12 AM 41.9 °F 33.7 °F 40.1 °F 93% 29.21 in 2.5 mi West 17.3 mph - N/A   Overcast
7:32 AM 41.9 °F 33.7 °F 40.1 °F 93% 29.20 in 3.0 mi West 17.3 mph 23.0 mph N/A   Overcast
7:52 AM 41.9 °F 33.4 °F 40.1 °F 93% 29.20 in 5.0 mi West 18.4 mph - N/A   Overcast
8:12 AM 41.9 °F 33.7 °F 40.3 °F 94% 29.21 in 4.0 mi West 17.3 mph - N/A   Overcast
8:32 AM 42.1 °F 33.3 °F 40.5 °F 94% 29.20 in 1.5 mi West 19.6 mph 23.0 mph N/A   Drizzle
8:52 AM 42.1 °F 33.9 °F 40.5 °F 94% 29.20 in 1.5 mi West 17.3 mph 20.7 mph N/A   Drizzle
9:12 AM 42.3 °F 34.8 °F 41.0 °F 95% 29.21 in 1.8 mi West 15.0 mph - N/A   Overcast
9:32 AM 42.8 °F 35.1 °F 41.2 °F 94% 29.21 in 1.5 mi West 16.1 mph - N/A   Overcast
9:52 AM 42.8 °F 35.1 °F 41.2 °F 94% 29.21 in 1.5 mi West 16.1 mph - N/A   Overcast
10:12 AM 43.0 °F 35.7 °F 41.5 °F 95% 29.21 in 1.2 mi WNW 15.0 mph - N/A   Overcast
10:32 AM 43.7 °F 36.3 °F 42.1 °F 94% 29.21 in 1.5 mi WNW 16.1 mph 20.7 mph N/A   Overcast
10:52 AM 43.7 °F 35.7 °F 42.3 °F 95% 29.21 in 2.5 mi WNW 18.4 mph 23.0 mph N/A   Overcast
11:12 AM 44.1 °F 37.4 °F 42.4 °F 94% 29.21 in 5.0 mi WNW 13.8 mph - N/A   Overcast
11:32 AM 44.2 °F 37.3 °F 42.8 °F 95% 29.21 in 4.0 mi WNW 15.0 mph - N/A   Overcast
11:52 AM 44.6 °F 38.1 °F 42.8 °F 93% 29.22 in 7.0 mi NW 13.8 mph - N/A   Overcast
12:12 PM 44.6 °F 38.4 °F 43.0 °F 94% 29.23 in 5.0 mi NW 12.7 mph - 0.01 in Rain Light Rain
12:32 PM 44.6 °F 39.2 °F 43.0 °F 94% 29.24 in 7.0 mi NNW 10.4 mph - 0.02 in Rain Light Rain
12:52 PM 45.5 °F 40.8 °F 43.7 °F 93% 29.25 in 7.0 mi NW 9.2 mph 16.1 mph 0.03 in Rain Light Rain
1:12 PM 45.5 °F 39.9 °F 43.9 °F 94% 29.27 in 10.0 mi NW 11.5 mph 16.1 mph N/A   Drizzle
1:32 PM 46.2 °F 40.8 °F 44.4 °F 93% 29.27 in 7.0 mi NW 11.5 mph 18.4 mph 0.01 in Rain Light Rain
1:52 PM 46.4 °F 39.8 °F 44.1 °F 92% 29.28 in 7.0 mi NNW 16.1 mph - 0.02 in Rain Rain
2:12 PM 45.7 °F 39.8 °F 43.3 °F 92% 29.30 in 10.0 mi North 12.7 mph 18.4 mph N/A Rain Light Rain
2:32 PM 45.7 °F 40.2 °F 43.7 °F 93% 29.31 in 7.0 mi NNW 11.5 mph - 0.01 in Rain Light Rain
2:52 PM 45.7 °F 39.8 °F 43.7 °F 93% 29.33 in 5.0 mi NNW 12.7 mph 20.7 mph 0.03 in Rain Light Rain
3:12 PM 45.7 °F 38.8 °F 43.7 °F 93% 29.34 in 4.0 mi NW 16.1 mph 21.9 mph N/A Rain Light Rain
3:32 PM 45.5 °F 39.2 °F 43.7 °F 93% 29.35 in 4.0 mi NW 13.8 mph 21.9 mph 0.01 in Rain Light Rain
3:52 PM 45.7 °F 39.1 °F 43.9 °F 93% 29.36 in 4.0 mi NW 15.0 mph - 0.03 in Rain Light Rain
4:12 PM 46.0 °F 39.3 °F 44.2 °F 93% 29.37 in 4.0 mi NW 16.1 mph - N/A Rain Light Rain
4:32 PM 46.2 °F 40.5 °F 44.4 °F 93% 29.37 in 4.0 mi WNW 12.7 mph 17.3 mph 0.01 in Rain Rain
4:52 PM 46.4 °F 41.1 °F 44.6 °F 93% 29.37 in 2.5 mi West 11.5 mph 18.4 mph 0.01 in   Drizzle
5:12 PM 47.3 °F - 45.7 °F 94% 29.37 in 2.5 mi WNW 21.9 mph 26.5 mph 0.01 in   Drizzle
5:32 PM 46.4 °F 38.5 °F 44.6 °F 93% 29.37 in 1.8 mi WNW 21.9 mph 28.8 mph 0.01 in Rain Light Rain
5:52 PM 46.4 °F 38.1 °F 44.6 °F 93% 29.37 in 2.0 mi WNW 24.2 mph 31.1 mph 0.01 in Rain Rain
6:12 PM 45.7 °F 38.0 °F 44.1 °F 94% 29.38 in 2.0 mi WNW 19.6 mph 28.8 mph N/A   Drizzle
6:32 PM 45.5 °F 37.1 °F 43.5 °F 93% 29.38 in 3.0 mi WNW 23.0 mph 29.9 mph N/A   Drizzle
6:52 PM 45.5 °F 36.3 °F 43.3 °F 92% 29.38 in 3.0 mi NW 27.6 mph 35.7 mph N/A   Drizzle
7:11 PM 45.3 °F 36.1 °F 42.8 °F 91% 29.38 in 5.0 mi NW 27.6 mph 39.1 mph N/A   Drizzle
7:32 PM 44.8 °F 35.3 °F 42.3 °F 91% 29.39 in 7.0 mi WNW 27.6 mph 36.8 mph N/A   Drizzle
7:52 PM 44.6 °F 34.7 °F 42.1 °F 91% 29.39 in 7.0 mi NW 29.9 mph 35.7 mph 0.02 in   Drizzle
8:12 PM 44.1 °F 34.4 °F 41.9 °F 92% 29.39 in 7.0 mi NW 27.6 mph 38.0 mph 0.01 in Rain Light Rain
8:32 PM 43.7 °F 33.2 °F 42.1 °F 94% 29.40 in 7.0 mi WNW 32.2 mph 42.6 mph 0.03 in Rain Light Rain
8:52 PM 43.7 °F 33.7 °F 41.9 °F 93% 29.41 in 7.0 mi NW 28.8 mph 35.7 mph 0.05 in Rain Rain
9:12 PM 43.7 °F 33.9 °F 41.4 °F 91% 29.42 in 7.0 mi WNW 27.6 mph 35.7 mph 0.01 in Rain Light Rain
9:32 PM 43.5 °F 34.3 °F 41.2 °F 91% 29.42 in 7.0 mi NW 24.2 mph 33.4 mph 0.02 in Rain Light Rain
9:52 PM 43.2 °F 33.6 °F 41.2 °F 93% 29.42 in 5.0 mi NW 25.3 mph 32.2 mph 0.04 in Rain Light Rain
10:12 PM 43.2 °F 34.2 °F 41.2 °F 93% 29.43 in 5.0 mi NW 21.9 mph 32.2 mph N/A Rain Light Rain
10:32 PM 43.0 °F 33.8 °F 41.0 °F 93% 29.43 in 4.0 mi NW 23.0 mph 32.2 mph 0.01 in Rain Light Rain
10:52 PM 43.0 °F 33.3 °F 41.0 °F 93% 29.44 in 4.0 mi NW 25.3 mph 33.4 mph 0.02 in Rain Rain
11:12 PM 42.8 °F 33.3 °F 40.6 °F 92% 29.44 in 4.0 mi NW 24.2 mph 33.4 mph 0.01 in   Drizzle
11:32 PM 42.4 °F 33.3 °F 41.0 °F 95% 29.45 in 4.0 mi NW 21.9 mph 32.2 mph 0.02 in Rain Light Rain
11:52 PM 42.3 °F 32.6 °F 40.6 °F 94% 29.45 in 5.0 mi NW 24.2 mph 33.4 mph 0.04 in Rain Light Rain